AME4536 LBSF-LUKK

Flight info

Callsign AME4536
Flight time 0h 56m
Altitude 37000
Route GOL4S/09 GOL DCT SOMOV DCT FLR DCT URELA DCT RAMIX DCT BUSES
Aircraft A310/H-SDFGHIM1RTUWXY/LB1

Departure

Time 2026-05-04 17:14
Airport Sofia Airport (LBSF)

Arrival

Time 2026-05-04 18:10
Airport Chişinău International Airport (LUKK)
Time Latitude Longitude Altitude Speed Heading
2026-05-04 16:50 42.69218 23.41400 1756 ft 0 kts 213°
2026-05-04 17:07 42.69215 23.41398 1756 ft 1 kts 210°
2026-05-04 17:07 42.69189 23.41414 1748 ft 5 kts 125°
2026-05-04 17:07 42.69192 23.41475 1746 ft 8 kts 77°
2026-05-04 17:08 42.69216 23.41529 1751 ft 4 kts 10°
2026-05-04 17:08 42.69280 23.41512 1753 ft 5 kts 350°
2026-05-04 17:08 42.69319 23.41514 1750 ft 6 kts
2026-05-04 17:09 42.69363 23.41522 1754 ft 7 kts
2026-05-04 17:09 42.69413 23.41528 1753 ft 9 kts 359°
2026-05-04 17:09 42.69475 23.41453 1750 ft 17 kts 284°
2026-05-04 17:10 42.69498 23.41116 1755 ft 18 kts 273°
2026-05-04 17:10 42.69526 23.40594 1748 ft 19 kts 276°
2026-05-04 17:11 42.69538 23.40415 1751 ft 19 kts 275°
2026-05-04 17:11 42.69549 23.40233 1747 ft 19 kts 275°
2026-05-04 17:11 42.69572 23.39865 1754 ft 20 kts 274°
2026-05-04 17:12 42.69583 23.39679 1747 ft 20 kts 275°
2026-05-04 17:12 42.69748 23.39620 1755 ft 12 kts 40°
2026-05-04 17:13 42.69755 23.39940 1756 ft 11 kts 93°
2026-05-04 17:14 42.69687 23.41050 1755 ft 106 kts 94°
2026-05-04 17:14 42.69613 23.42308 1757 ft 160 kts 94°
2026-05-04 17:14 42.69434 23.45513 2851 ft 171 kts 93°
2026-05-04 17:15 42.69364 23.47146 3544 ft 175 kts 90°
2026-05-04 17:15 42.69226 23.50432 5053 ft 175 kts 78°
2026-05-04 17:16 42.70605 23.53346 6092 ft 202 kts 51°
2026-05-04 17:16 42.73482 23.58281 8216 ft 242 kts 50°
2026-05-04 17:17 42.74552 23.60129 8987 ft 255 kts 50°
2026-05-04 17:17 42.78009 23.66185 11234 ft 296 kts 51°
2026-05-04 17:18 42.79309 23.68462 11837 ft 312 kts 51°
2026-05-04 17:18 42.82050 23.73319 13292 ft 335 kts 51°
2026-05-04 17:19 42.84999 23.78516 14447 ft 362 kts 52°
2026-05-04 17:19 42.88170 23.84086 15669 ft 380 kts 51°
2026-05-04 17:20 42.91433 23.89832 17184 ft 388 kts 51°
2026-05-04 17:20 42.94756 23.95725 18609 ft 397 kts 52°
2026-05-04 17:20 42.96446 23.98728 19236 ft 401 kts 51°
2026-05-04 17:21 42.99855 24.04802 20519 ft 407 kts 51°
2026-05-04 17:21 43.03328 24.10956 21802 ft 413 kts 51°
2026-05-04 17:22 43.05663 24.15134 22662 ft 417 kts 51°
2026-05-04 17:22 43.06843 24.17233 23091 ft 420 kts 51°
2026-05-04 17:23 43.12889 24.25935 24757 ft 428 kts 35°
2026-05-04 17:23 43.15345 24.28251 25280 ft 431 kts 34°
2026-05-04 17:23 43.20244 24.33067 26287 ft 438 kts 37°
2026-05-04 17:24 43.22691 24.35570 26817 ft 440 kts 37°
2026-05-04 17:24 43.30032 24.43183 28680 ft 441 kts 37°
2026-05-04 17:25 43.32474 24.45713 29383 ft 440 kts 37°
2026-05-04 17:25 43.37333 24.50765 30654 ft 438 kts 37°
2026-05-04 17:26 43.42186 24.55792 31718 ft 437 kts 37°
2026-05-04 17:26 43.49454 24.63339 33283 ft 437 kts 37°
2026-05-04 17:27 43.54297 24.68386 34290 ft 437 kts 37°
2026-05-04 17:27 43.59144 24.73459 34928 ft 442 kts 37°
2026-05-04 17:28 43.64032 24.78590 35044 ft 441 kts 37°
2026-05-04 17:29 43.78655 24.94082 35051 ft 443 kts 37°
2026-05-04 17:31 43.90910 25.07029 35043 ft 444 kts 37°
2026-05-04 17:32 44.03165 25.20053 35037 ft 445 kts 37°
2026-05-04 17:33 44.10508 25.27903 34814 ft 446 kts 36°
2026-05-04 17:33 44.12971 25.30535 34944 ft 450 kts 36°
2026-05-04 17:34 44.23015 25.41316 35028 ft 458 kts 36°
2026-05-04 17:35 44.35597 25.54898 35035 ft 458 kts 36°
2026-05-04 17:36 44.40618 25.60343 35026 ft 458 kts 36°
2026-05-04 17:36 44.44972 25.65071 35028 ft 458 kts 37°
2026-05-04 17:37 44.49376 25.69868 35024 ft 457 kts 36°
2026-05-04 17:37 44.54651 25.74775 35027 ft 456 kts 29°
2026-05-04 17:38 44.60136 25.79219 35040 ft 456 kts 29°
2026-05-04 17:38 44.65577 25.83767 35039 ft 456 kts 30°
2026-05-04 17:39 44.73722 25.90644 35043 ft 457 kts 30°
2026-05-04 17:39 44.79157 25.95249 35044 ft 457 kts 30°
2026-05-04 17:40 44.84589 25.99859 35049 ft 457 kts 29°
2026-05-04 17:40 44.90020 26.04504 35055 ft 457 kts 29°
2026-05-04 17:41 44.95455 26.09136 35060 ft 458 kts 30°
2026-05-04 17:41 45.00895 26.13779 35051 ft 458 kts 30°
2026-05-04 17:42 45.06340 26.18440 35058 ft 458 kts 30°
2026-05-04 17:42 45.11780 26.23113 35061 ft 459 kts 30°
2026-05-04 17:43 45.17216 26.27809 35061 ft 459 kts 30°
2026-05-04 17:43 45.22663 26.32510 35069 ft 459 kts 30°
2026-05-04 17:44 45.28108 26.37203 35055 ft 459 kts 30°
2026-05-04 17:44 45.33558 26.41922 35067 ft 460 kts 30°
2026-05-04 17:45 45.39007 26.46648 35057 ft 460 kts 30°
2026-05-04 17:45 45.44455 26.51405 35063 ft 461 kts 30°
2026-05-04 17:46 45.49909 26.56188 35064 ft 461 kts 31°
2026-05-04 17:46 45.55211 26.61330 35063 ft 462 kts 33°
2026-05-04 17:47 45.60502 26.66516 35064 ft 463 kts 32°
2026-05-04 17:47 45.65815 26.71684 35061 ft 463 kts 32°
2026-05-04 17:48 45.71128 26.76852 35057 ft 463 kts 32°
2026-05-04 17:48 45.76448 26.82025 35050 ft 464 kts 32°
2026-05-04 17:49 45.81777 26.87208 35045 ft 464 kts 32°
2026-05-04 17:49 45.87103 26.92396 35041 ft 464 kts 32°
2026-05-04 17:50 45.92432 26.97590 35037 ft 464 kts 32°
2026-05-04 17:50 45.97780 27.02813 35031 ft 468 kts 33°
2026-05-04 17:51 46.03158 27.08124 35026 ft 471 kts 33°
2026-05-04 17:51 46.08565 27.13472 34944 ft 474 kts 33°
2026-05-04 17:52 46.11279 27.16144 34709 ft 473 kts 33°
2026-05-04 17:52 46.13989 27.18809 34460 ft 472 kts 33°
2026-05-04 17:52 46.16693 27.21507 34220 ft 476 kts 33°
2026-05-04 17:52 46.19419 27.24203 33973 ft 477 kts 33°
2026-05-04 17:53 46.22157 27.26906 33572 ft 477 kts 33°
2026-05-04 17:53 46.24903 27.29628 32373 ft 482 kts 32°
2026-05-04 17:53 46.27530 27.32675 31137 ft 491 kts 43°
2026-05-04 17:53 46.29759 27.36452 29895 ft 499 kts 51°
2026-05-04 17:54 46.31744 27.40571 28682 ft 500 kts 54°
2026-05-04 17:54 46.33685 27.44722 27538 ft 498 kts 54°
2026-05-04 17:54 46.35667 27.48794 26504 ft 492 kts 53°
2026-05-04 17:54 46.37665 27.52735 25585 ft 479 kts 52°
2026-05-04 17:55 46.39628 27.56561 24735 ft 470 kts 52°
2026-05-04 17:55 46.41530 27.60324 23938 ft 457 kts 53°
2026-05-04 17:55 46.43378 27.63992 23161 ft 446 kts 53°
2026-05-04 17:55 46.45181 27.67568 22330 ft 435 kts 53°
2026-05-04 17:56 46.46945 27.71066 21547 ft 425 kts 53°
2026-05-04 17:56 46.48666 27.74477 20777 ft 415 kts 53°
2026-05-04 17:56 46.50350 27.77812 20066 ft 406 kts 53°
2026-05-04 17:56 46.51991 27.81059 19448 ft 394 kts 53°
2026-05-04 17:57 46.53589 27.84221 18851 ft 384 kts 53°
2026-05-04 17:57 46.55151 27.87310 18255 ft 375 kts 53°
2026-05-04 17:57 46.56668 27.90312 17708 ft 364 kts 53°
2026-05-04 17:57 46.58134 27.93230 17178 ft 353 kts 53°
2026-05-04 17:58 46.59557 27.96071 16646 ft 344 kts 53°
2026-05-04 17:58 46.60941 27.98844 16147 ft 335 kts 53°
2026-05-04 17:58 46.62294 28.01549 15642 ft 328 kts 53°
2026-05-04 17:58 46.63617 28.04204 15140 ft 321 kts 53°
2026-05-04 17:59 46.64911 28.06801 14650 ft 315 kts 53°
2026-05-04 17:59 46.66178 28.09350 14177 ft 309 kts 53°
2026-05-04 17:59 46.68640 28.14325 13159 ft 298 kts 53°
2026-05-04 18:00 46.69836 28.16756 12646 ft 294 kts 52°
2026-05-04 18:00 46.71025 28.19138 12147 ft 288 kts 52°
2026-05-04 18:00 46.72190 28.21483 11631 ft 284 kts 52°
2026-05-04 18:00 46.73332 28.23802 11148 ft 280 kts 51°
2026-05-04 18:01 46.74464 28.26075 10678 ft 275 kts 51°
2026-05-04 18:01 46.75580 28.28312 10220 ft 272 kts 51°
2026-05-04 18:01 46.76679 28.30526 9740 ft 268 kts 51°
2026-05-04 18:02 46.78825 28.34884 8700 ft 263 kts 52°
2026-05-04 18:02 46.79878 28.37051 8154 ft 262 kts 52°
2026-05-04 18:02 46.80931 28.39206 7610 ft 262 kts 52°
2026-05-04 18:02 46.81993 28.41357 7082 ft 261 kts 52°
2026-05-04 18:03 46.83055 28.43486 6672 ft 257 kts 52°
2026-05-04 18:03 46.84092 28.45567 6322 ft 251 kts 52°
2026-05-04 18:03 46.85094 28.47606 5968 ft 245 kts 53°
2026-05-04 18:03 46.86071 28.49605 5621 ft 240 kts 53°
2026-05-04 18:04 46.87023 28.51561 5357 ft 233 kts 53°
2026-05-04 18:04 46.87954 28.53456 5098 ft 226 kts 53°
2026-05-04 18:04 46.89755 28.57095 4508 ft 216 kts 53°
2026-05-04 18:05 46.90620 28.58846 4231 ft 209 kts 54°
2026-05-04 18:05 46.91450 28.60551 3977 ft 203 kts 54°
2026-05-04 18:05 46.92030 28.62352 3792 ft 193 kts 76°
2026-05-04 18:05 46.92219 28.64257 3573 ft 187 kts 86°
2026-05-04 18:06 46.92265 28.67847 3202 ft 166 kts 86°
2026-05-04 18:06 46.92299 28.69483 3004 ft 158 kts 86°
2026-05-04 18:06 46.92332 28.71087 2875 ft 159 kts 86°
2026-05-04 18:07 46.92363 28.72662 2742 ft 151 kts 86°
2026-05-04 18:07 46.92395 28.74183 2612 ft 151 kts 86°
2026-05-04 18:07 46.92426 28.75687 2447 ft 145 kts 86°
2026-05-04 18:07 46.92455 28.77163 2345 ft 148 kts 86°
2026-05-04 18:08 46.92484 28.78629 2063 ft 137 kts 86°
2026-05-04 18:08 46.92513 28.80011 1872 ft 136 kts 86°
2026-05-04 18:08 46.92541 28.81367 1727 ft 132 kts 86°
2026-05-04 18:08 46.92575 28.82693 1572 ft 131 kts 87°
2026-05-04 18:09 46.92622 28.85412 1175 ft 136 kts 87°
2026-05-04 18:09 46.92677 28.88235 786 ft 143 kts 89°
2026-05-04 18:10 46.92716 28.89685 602 ft 143 kts 90°
2026-05-04 18:10 46.92745 28.91127 438 ft 141 kts 90°
2026-05-04 18:10 46.92766 28.92456 411 ft 113 kts 88°
2026-05-04 18:10 46.92782 28.93268 413 ft 33 kts 88°
2026-05-04 18:11 46.92819 28.93409 412 ft 13 kts 22°
2026-05-04 18:11 46.92914 28.93411 409 ft 15 kts 357°
2026-05-04 18:11 46.93021 28.93419 407 ft 16 kts
2026-05-04 18:11 46.93128 28.93440 417 ft 15 kts
2026-05-04 18:12 46.93240 28.93461 411 ft 18 kts
2026-05-04 18:12 46.93306 28.93472 409 ft 1 kts
2026-05-04 18:12 46.93315 28.93473 407 ft 4 kts
2026-05-04 18:12 46.93375 28.93482 407 ft 12 kts
2026-05-04 18:13 46.93435 28.93450 412 ft 8 kts 303°
2026-05-04 18:13 46.93470 28.93375 413 ft 9 kts 302°
2026-05-04 18:13 46.93483 28.93300 407 ft 0 kts 278°